International Skating Union - Official Site

ISU World Cup Berlin
January 27 - 29, 2017

Draw | Lap Times | Index | World Cup

Referee: Bert  TIMMERMAN  (NED)
Starter: Kari  HAUTAMÄKI  (FIN)
StartTime: EndTime: Air Temp: Ice Temp: Humidity:
17:00 18:24 14.4℃ -6.6℃ 29%
Result 5000m Men Division B
Rankings as of Jan 28 2017 6:28PM
Rank: No.: Name: Nation: Time: Behind: Points:
1 70 Marcel  Bosker NED NED 6:21.82200m - 18.88 - (18.8)
600m - 48.90 - (30.0)
1000m - 1:18.78 - (29.8)
1400m - 1:49.16 - (30.3)
1800m - 2:19.54 - (30.3)
2200m - 2:49.66 - (30.1)
2600m - 3:19.88 - (30.2)
3000m - 3:50.20 - (30.3)
3400m - 4:20.48 - (30.2)
3800m - 4:50.64 - (30.1)
4200m - 5:20.90 - (30.2)
4600m - 5:51.29 - (30.3)
5000m - 6:21.82 - (30.5)
32
2 71 Jos  de Vos NED NED 6:28.48200m - 19.21 - (19.2)
600m - 48.56 - (29.3)
1000m - 1:18.55 - (29.9)
1400m - 1:48.73 - (30.1)
1800m - 2:19.11 - (30.3)
2200m - 2:49.68 - (30.5)
2600m - 3:20.34 - (30.6)
3000m - 3:51.12 - (30.7)
3400m - 4:22.10 - (30.9)
3800m - 4:53.29 - (31.1)
4200m - 5:24.82 - (31.5)
4600m - 5:56.51 - (31.6)
5000m - 6:28.48 - (31.9)
6.66 27
3 117 Livio  Wenger SUI SUI 6:29.42200m - 19.34 - (19.3)
600m - 49.77 - (30.4)
1000m - 1:20.60 - (30.8)
1400m - 1:51.55 - (30.9)
1800m - 2:22.30 - (30.7)
2200m - 2:53.21 - (30.9)
2600m - 3:23.96 - (30.7)
3000m - 3:54.57 - (30.6)
3400m - 4:25.12 - (30.5)
3800m - 4:55.55 - (30.4)
4200m - 5:25.99 - (30.4)
4600m - 5:57.01 - (31.0)
5000m - 6:29.42 - (32.4)
7.60 23
4 112 Danil  Sinitsyn RUS RUS 6:30.26200m - 20.03 - (20.0)
600m - 49.74 - (29.7)
1000m - 1:20.82 - (31.0)
1400m - 1:52.25 - (31.4)
1800m - 2:22.92 - (30.6)
2200m - 2:54.09 - (31.1)
2600m - 3:25.09 - (31.0)
3000m - 3:56.15 - (31.0)
3400m - 4:27.43 - (31.2)
3800m - 4:58.81 - (31.3)
4200m - 5:29.17 - (30.3)
4600m - 5:59.72 - (30.5)
5000m - 6:30.26 - (30.5)
8.44 19
5 24 Sebastian  Druszkiewicz CZE CZE 6:30.31200m - 19.33 - (19.3)
600m - 49.21 - (29.8)
1000m - 1:19.28 - (30.0)
1400m - 1:49.35 - (30.0)
1800m - 2:19.47 - (30.1)
2200m - 2:49.76 - (30.2)
2600m - 3:20.37 - (30.6)
3000m - 3:51.40 - (31.0)
3400m - 4:22.86 - (31.4)
3800m - 4:54.35 - (31.4)
4200m - 5:26.05 - (31.6)
4600m - 5:58.10 - (32.0)
5000m - 6:30.31 - (32.2)
8.49 15
6 93 Reyon  Kay NZL NZL 6:31.05200m - 19.83 - (19.8)
600m - 49.62 - (29.7)
1000m - 1:20.06 - (30.4)
1400m - 1:50.92 - (30.8)
1800m - 2:21.66 - (30.7)
2200m - 2:52.49 - (30.8)
2600m - 3:23.14 - (30.6)
3000m - 3:53.74 - (30.6)
3400m - 4:24.36 - (30.6)
3800m - 4:55.29 - (30.9)
4200m - 5:26.61 - (31.3)
4600m - 5:58.34 - (31.7)
5000m - 6:31.05 - (32.7)
9.23 11
7 106 Sergey  Gryaztsov RUS RUS 6:31.62200m - 18.87 - (18.8)
600m - 48.31 - (29.4)
1000m - 1:19.50 - (31.1)
1400m - 1:50.08 - (30.5)
1800m - 2:20.80 - (30.7)
2200m - 2:51.63 - (30.8)
2600m - 3:22.64 - (31.0)
3000m - 3:53.64 - (31.0)
3400m - 4:24.73 - (31.0)
3800m - 4:56.11 - (31.3)
4200m - 5:27.80 - (31.6)
4600m - 5:59.68 - (31.8)
5000m - 6:31.62 - (31.9)
9.80 9
8 46 Michele  Malfatti ITA ITA 6:31.88200m - 19.44 - (19.4)
600m - 49.81 - (30.3)
1000m - 1:19.77 - (29.9)
1400m - 1:50.41 - (30.6)
1800m - 2:21.07 - (30.6)
2200m - 2:51.94 - (30.8)
2600m - 3:22.91 - (30.9)
3000m - 3:53.71 - (30.8)
3400m - 4:24.63 - (30.9)
3800m - 4:56.07 - (31.4)
4200m - 5:27.62 - (31.5)
4600m - 5:59.65 - (32.0)
5000m - 6:31.88 - (32.2)
10.06 7
9 40 Felix  Maly GER GER 6:32.62200m - 19.16 - (19.1)
600m - 49.46 - (30.3)
1000m - 1:20.14 - (30.6)
1400m - 1:51.55 - (31.4)
1800m - 2:22.50 - (30.9)
2200m - 2:53.50 - (31.0)
2600m - 3:24.44 - (30.9)
3000m - 3:55.81 - (31.3)
3400m - 4:26.89 - (31.0)
3800m - 4:58.28 - (31.3)
4200m - 5:29.48 - (31.2)
4600m - 6:01.08 - (31.5)
5000m - 6:32.62 - (31.5)
10.80 6
10 63 Dmitry  Babenko KAZ KAZ 6:32.84200m - 19.83 - (19.8)
600m - 51.22 - (31.3)
1000m - 1:22.40 - (31.1)
1400m - 1:53.95 - (31.5)
1800m - 2:24.94 - (30.9)
2200m - 2:55.85 - (30.9)
2600m - 3:26.82 - (30.9)
3000m - 3:58.00 - (31.1)
3400m - 4:29.31 - (31.3)
3800m - 5:00.47 - (31.1)
4200m - 5:31.68 - (31.2)
4600m - 6:02.62 - (30.9)
5000m - 6:32.84 - (30.2)
11.02 5
11 4 Linus  Heidegger AUT AUT 6:32.94200m - 19.63 - (19.6)
600m - 50.40 - (30.7)
1000m - 1:21.18 - (30.7)
1400m - 1:51.98 - (30.7)
1800m - 2:22.79 - (30.8)
2200m - 2:53.36 - (30.5)
2600m - 3:24.30 - (30.9)
3000m - 3:55.21 - (30.9)
3400m - 4:26.37 - (31.1)
3800m - 4:57.78 - (31.4)
4200m - 5:29.23 - (31.4)
4600m - 6:00.95 - (31.7)
5000m - 6:32.94 - (31.9)
11.12 4
12 26 Viktor Hald  Thorup DEN DEN 6:33.30200m - 20.39 - (20.3)
600m - 51.10 - (30.7)
1000m - 1:21.56 - (30.4)
1400m - 1:52.23 - (30.6)
1800m - 2:22.68 - (30.4)
2200m - 2:53.18 - (30.5)
2600m - 3:23.63 - (30.4)
3000m - 3:54.26 - (30.6)
3400m - 4:25.11 - (30.8)
3800m - 4:56.46 - (31.3)
4200m - 5:28.36 - (31.9)
4600m - 6:00.72 - (32.3)
5000m - 6:33.30 - (32.5)
11.48 3
13 57 Shota  Nakamura JPN JPN 6:33.59200m - 18.84 - (18.8)
600m - 49.23 - (30.3)
1000m - 1:20.15 - (30.9)
1400m - 1:51.07 - (30.9)
1800m - 2:22.10 - (31.0)
2200m - 2:52.89 - (30.7)
2600m - 3:24.04 - (31.1)
3000m - 3:55.30 - (31.2)
3400m - 4:26.50 - (31.1)
3800m - 4:57.98 - (31.4)
4200m - 5:29.75 - (31.7)
4600m - 6:01.58 - (31.8)
5000m - 6:33.59 - (32.0)
11.77 2
14 9 Vitaly  Mikhailov BLR BLR 6:34.59200m - 19.74 - (19.7)
600m - 50.14 - (30.4)
1000m - 1:21.11 - (30.9)
1400m - 1:52.24 - (31.1)
1800m - 2:23.48 - (31.2)
2200m - 2:54.83 - (31.3)
2600m - 3:26.17 - (31.3)
3000m - 3:57.45 - (31.2)
3400m - 4:28.90 - (31.4)
3800m - 5:00.52 - (31.6)
4200m - 5:31.92 - (31.4)
4600m - 6:03.10 - (31.1)
5000m - 6:34.59 - (31.4)
12.77 1
15 103 Jan  Szymanski POL POL 6:35.15200m - 19.05 - (19.0)
600m - 49.12 - (30.0)
1000m - 1:19.75 - (30.6)
1400m - 1:50.88 - (31.1)
1800m - 2:21.91 - (31.0)
2200m - 2:52.84 - (30.9)
2600m - 3:24.08 - (31.2)
3000m - 3:55.67 - (31.5)
3400m - 4:27.17 - (31.5)
3800m - 4:59.19 - (32.0)
4200m - 5:31.61 - (32.4)
4600m - 6:03.61 - (32.0)
5000m - 6:35.15 - (31.5)
13.33 0
16 88 Simen Spieler  Nilsen NOR NOR 6:35.41200m - 19.14 - (19.1)
600m - 48.99 - (29.8)
1000m - 1:19.20 - (30.2)
1400m - 1:49.83 - (30.6)
1800m - 2:20.62 - (30.7)
2200m - 2:51.48 - (30.8)
2600m - 3:22.53 - (31.0)
3000m - 3:53.79 - (31.2)
3400m - 4:25.25 - (31.4)
3800m - 4:57.21 - (31.9)
4200m - 5:29.50 - (32.2)
4600m - 6:01.93 - (32.4)
5000m - 6:35.41 - (33.4)
13.59 0
17 92 Shane  Dobbin NZL NZL 6:36.04200m - 19.46 - (19.4)
600m - 49.01 - (29.5)
1000m - 1:19.44 - (30.4)
1400m - 1:50.46 - (31.0)
1800m - 2:21.62 - (31.1)
2200m - 2:53.08 - (31.4)
2600m - 3:24.66 - (31.5)
3000m - 3:56.12 - (31.4)
3400m - 4:27.61 - (31.4)
3800m - 4:59.32 - (31.7)
4200m - 5:31.37 - (32.0)
4600m - 6:03.52 - (32.1)
5000m - 6:36.04 - (32.5)
14.22 0
18 105 Adrian  Wielgat POL POL 6:36.45200m - 19.54 - (19.5)
600m - 49.61 - (30.0)
1000m - 1:20.11 - (30.5)
1400m - 1:50.90 - (30.7)
1800m - 2:21.37 - (30.4)
2200m - 2:51.96 - (30.5)
2600m - 3:22.85 - (30.8)
3000m - 3:54.44 - (31.5)
3400m - 4:26.41 - (31.9)
3800m - 4:58.69 - (32.2)
4200m - 5:31.14 - (32.4)
4600m - 6:03.51 - (32.3)
5000m - 6:36.45 - (32.9)
14.63 0
19 123 Jeffery  Swider-Peltz USA USA 6:37.20200m - 19.99 - (19.9)
600m - 50.82 - (30.8)
1000m - 1:22.11 - (31.2)
1400m - 1:53.66 - (31.5)
1800m - 2:25.19 - (31.5)
2200m - 2:56.43 - (31.2)
2600m - 3:27.99 - (31.5)
3000m - 3:59.59 - (31.5)
3400m - 4:30.89 - (31.2)
3800m - 5:02.36 - (31.4)
4200m - 5:33.73 - (31.3)
4600m - 6:05.36 - (31.6)
5000m - 6:37.20 - (31.8)
15.38 0
20 100 Konrad  Niedzwiedzki POL POL 6:37.76200m - 19.40 - (19.3)
600m - 49.57 - (30.1)
1000m - 1:20.36 - (30.7)
1400m - 1:51.71 - (31.3)
1800m - 2:23.29 - (31.5)
2200m - 2:54.75 - (31.4)
2600m - 3:26.31 - (31.5)
3000m - 3:58.08 - (31.7)
3400m - 4:30.13 - (32.0)
3800m - 5:01.93 - (31.8)
4200m - 5:33.50 - (31.5)
4600m - 6:05.41 - (31.9)
5000m - 6:37.75 - (32.3)
15.94 0
21 97 Roland  Cieslak POL POL 6:38.11200m - 19.58 - (19.5)
600m - 50.15 - (30.5)
1000m - 1:21.36 - (31.2)
1400m - 1:52.97 - (31.6)
1800m - 2:24.30 - (31.3)
2200m - 2:55.86 - (31.5)
2600m - 3:27.58 - (31.7)
3000m - 3:59.53 - (31.9)
3400m - 4:31.24 - (31.7)
3800m - 5:02.55 - (31.3)
4200m - 5:34.16 - (31.6)
4600m - 6:05.99 - (31.8)
5000m - 6:38.11 - (32.1)
16.29 0
22 113 Sergey  Trofimov RUS RUS 6:38.17 (3) 200m - 18.83 - (18.8)
600m - 48.66 - (29.8)
1000m - 1:19.45 - (30.7)
1400m - 1:50.37 - (30.9)
1800m - 2:21.24 - (30.8)
2200m - 2:52.44 - (31.1)
2600m - 3:23.64 - (31.1)
3000m - 3:55.29 - (31.6)
3400m - 4:27.29 - (32.0)
3800m - 4:59.65 - (32.3)
4200m - 5:32.40 - (32.7)
4600m - 6:05.21 - (32.8)
5000m - 6:38.17 - (32.9)
16.35 0
23 89 Ole Bjørnsmoen   Næss NOR NOR 6:38.17 (7) 200m - 19.94 - (19.9)
600m - 49.63 - (29.6)
1000m - 1:20.36 - (30.7)
1400m - 1:51.06 - (30.7)
1800m - 2:22.02 - (30.9)
2200m - 2:53.06 - (31.0)
2600m - 3:24.41 - (31.3)
3000m - 3:55.94 - (31.5)
3400m - 4:27.78 - (31.8)
3800m - 4:59.77 - (31.9)
4200m - 5:32.08 - (32.3)
4600m - 6:04.80 - (32.7)
5000m - 6:38.17 - (33.3)
16.35 0
24 84 Sindre  Henriksen NOR NOR 6:38.43200m - 25.93 - (25.9)
600m - 55.51 - (29.5)
1000m - 1:25.43 - (29.9)
1400m - 1:56.04 - (30.6)
1800m - 2:26.57 - (30.5)
2200m - 2:57.26 - (30.6)
2600m - 3:28.13 - (30.8)
3000m - 3:59.07 - (30.9)
3400m - 4:30.20 - (31.1)
3800m - 5:01.77 - (31.5)
4200m - 5:33.77 - (32.0)
4600m - 6:06.06 - (32.2)
5000m - 6:38.43 - (32.3)
16.61 0
25 48 Luca  Stefani ITA ITA 6:38.72200m - 20.12 - (20.1)
600m - 50.49 - (30.3)
1000m - 1:21.83 - (31.3)
1400m - 1:53.23 - (31.4)
1800m - 2:24.71 - (31.4)
2200m - 2:56.12 - (31.4)
2600m - 3:27.30 - (31.1)
3000m - 3:58.67 - (31.3)
3400m - 4:29.91 - (31.2)
3800m - 5:01.45 - (31.5)
4200m - 5:33.65 - (32.2)
4600m - 6:06.21 - (32.5)
5000m - 6:38.72 - (32.5)
16.90 0
26 125 Haralds  Silovs LAT LAT 6:42.70200m - 19.42 - (19.4)
600m - 50.37 - (30.9)
1000m - 1:22.46 - (32.0)
1400m - 1:55.04 - (32.5)
1800m - 2:27.43 - (32.3)
2200m - 2:59.42 - (31.9)
2600m - 3:31.43 - (32.0)
3000m - 4:03.50 - (32.0)
3400m - 4:35.53 - (32.0)
3800m - 5:07.72 - (32.1)
4200m - 5:39.81 - (32.0)
4600m - 6:11.62 - (31.8)
5000m - 6:42.70 - (31.0)
20.88 0
27 122 Emery  Lehman USA USA 6:42.84200m - 19.46 - (19.4)
600m - 51.01 - (31.5)
1000m - 1:23.06 - (32.0)
1400m - 1:55.24 - (32.1)
1800m - 2:27.21 - (31.9)
2200m - 2:58.71 - (31.5)
2600m - 3:30.96 - (32.2)
3000m - 4:03.04 - (32.0)
3400m - 4:35.21 - (32.1)
3800m - 5:07.29 - (32.0)
4200m - 5:39.75 - (32.4)
4600m - 6:11.52 - (31.7)
5000m - 6:42.84 - (31.3)
21.02 0
28 95 Marcin  Bachanek POL POL 6:45.32200m - 20.02 - (20.0)
600m - 50.39 - (30.3)
1000m - 1:21.95 - (31.5)
1400m - 1:53.51 - (31.5)
1800m - 2:25.21 - (31.7)
2200m - 2:57.07 - (31.8)
2600m - 3:28.95 - (31.8)
3000m - 4:01.15 - (32.2)
3400m - 4:33.45 - (32.2)
3800m - 5:05.76 - (32.3)
4200m - 5:38.41 - (32.6)
4600m - 6:11.84 - (33.4)
5000m - 6:45.30 - (33.4)
23.50 0
29 15 Alemasi  Kahanbai CHN CHN 6:46.00200m - 19.11 - (19.1)
600m - 49.57 - (30.4)
1000m - 1:20.75 - (31.1)
1400m - 1:51.59 - (30.8)
1800m - 2:22.56 - (30.9)
2200m - 2:54.04 - (31.4)
2600m - 3:25.69 - (31.6)
3000m - 3:58.24 - (32.5)
3400m - 4:31.45 - (33.2)
3800m - 5:05.02 - (33.5)
4200m - 5:38.82 - (33.8)
4600m - 6:12.46 - (33.6)
5000m - 6:46.00 - (33.5)
24.18 0
30 1 Joshua  Capponi AUS AUS 6:46.80200m - 19.66 - (19.6)
600m - 50.24 - (30.5)
1000m - 1:21.19 - (30.9)
1400m - 1:52.28 - (31.0)
1800m - 2:23.69 - (31.4)
2200m - 2:55.38 - (31.6)
2600m - 3:27.42 - (32.0)
3000m - 3:59.93 - (32.5)
3400m - 4:32.64 - (32.7)
3800m - 5:05.74 - (33.1)
4200m - 5:39.22 - (33.4)
4600m - 6:12.96 - (33.7)
5000m - 6:46.80 - (33.8)
24.98 0
31 118 David  Andersson SWE SWE 6:46.97200m - 19.04 - (19.0)
600m - 49.93 - (30.8)
1000m - 1:22.16 - (32.2)
1400m - 1:54.18 - (32.0)
1800m - 2:26.34 - (32.1)
2200m - 2:58.81 - (32.4)
2600m - 3:30.84 - (32.0)
3000m - 4:03.15 - (32.3)
3400m - 4:35.88 - (32.7)
3800m - 5:08.56 - (32.6)
4200m - 5:41.32 - (32.7)
4600m - 6:13.79 - (32.4)
5000m - 6:46.97 - (33.1)
25.15 0
32 53 Seitaro  Ichinohe JPN JPN 6:48.93200m - 18.91 - (18.9)
600m - 50.21 - (31.3)
1000m - 1:21.13 - (30.9)
1400m - 1:51.98 - (30.8)
1800m - 2:22.70 - (30.7)
2200m - 2:53.33 - (30.6)
2600m - 3:34.92 - (41.5)
3000m - 4:07.47 - (32.5)
3400m - 4:39.80 - (32.3)
3800m - 5:13.56 - (33.7)
4200m - 5:46.00 - (32.4)
4600m - 6:18.17 - (32.1)
5000m - 6:48.93 - (30.7)
27.11 0
33 25 Stefan Due  Schmidt DEN DEN 6:49.51200m - 19.31 - (19.3)
600m - 50.04 - (30.7)
1000m - 1:21.75 - (31.7)
1400m - 1:53.77 - (32.0)
1800m - 2:25.81 - (32.0)
2200m - 2:58.08 - (32.2)
2600m - 3:30.48 - (32.3)
3000m - 4:03.04 - (32.5)
3400m - 4:35.57 - (32.5)
3800m - 5:08.29 - (32.7)
4200m - 5:41.29 - (33.0)
4600m - 6:14.83 - (33.5)
5000m - 6:49.51 - (34.6)
27.69 0
34 64 Maksim  Baklashkin KAZ KAZ 6:52.41200m - 19.68 - (19.6)
600m - 50.38 - (30.7)
1000m - 1:21.22 - (30.8)
1400m - 1:52.88 - (31.6)
1800m - 2:24.82 - (31.9)
2200m - 2:57.02 - (32.2)
2600m - 3:29.64 - (32.6)
3000m - 4:02.82 - (33.1)
3400m - 4:36.40 - (33.5)
3800m - 5:09.82 - (33.4)
4200m - 5:43.68 - (33.8)
4600m - 6:17.90 - (34.2)
5000m - 6:52.41 - (34.5)
30.59 0
35 18 Yu  Wu CHN CHN 6:54.38200m - 19.97 - (19.9)
600m - 50.05 - (30.0)
1000m - 1:21.27 - (31.2)
1400m - 1:52.72 - (31.4)
1800m - 2:25.13 - (32.4)
2200m - 2:57.31 - (32.1)
2600m - 3:29.91 - (32.5)
3000m - 4:02.92 - (33.0)
3400m - 4:36.93 - (34.0)
3800m - 5:11.02 - (34.0)
4200m - 5:45.71 - (34.6)
4600m - 6:19.93 - (34.2)
5000m - 6:54.38 - (34.4)
32.56 0
36 5 Jordan  McMillen BEL BEL 6:55.90200m - 19.93 - (19.9)
600m - 51.66 - (31.7)
1000m - 1:24.64 - (32.9)
1400m - 1:57.89 - (33.2)
1800m - 2:30.79 - (32.8)
2200m - 3:03.71 - (32.9)
2600m - 3:36.38 - (32.6)
3000m - 4:09.00 - (32.6)
3400m - 4:41.79 - (32.7)
3800m - 5:14.89 - (33.0)
4200m - 5:47.97 - (33.0)
4600m - 6:21.76 - (33.7)
5000m - 6:55.90 - (34.1)
34.08 0
37 19 Bowen  Xuan CHN CHN 6:59.39200m - 19.28 - (19.2)
600m - 49.52 - (30.2)
1000m - 1:20.53 - (31.0)
1400m - 1:52.55 - (32.0)
1800m - 2:25.03 - (32.4)
2200m - 2:58.14 - (33.1)
2600m - 3:31.79 - (33.6)
3000m - 4:05.82 - (34.0)
3400m - 4:40.42 - (34.6)
3800m - 5:15.43 - (35.0)
4200m - 5:50.16 - (34.7)
4600m - 6:24.54 - (34.3)
5000m - 6:59.39 - (34.8)
37.57 0
38 23 Daniel  Zapata COL COL 7:12.52200m - 20.58 - (20.5)
600m - 53.08 - (32.5)
1000m - 1:25.60 - (32.5)
1400m - 1:59.67 - (34.0)
1800m - 2:33.43 - (33.7)
2200m - 3:07.23 - (33.7)
2600m - 3:41.25 - (34.0)
3000m - 4:15.37 - (34.1)
3400m - 4:50.20 - (34.8)
3800m - 5:25.41 - (35.2)
4200m - 6:01.11 - (35.6)
4600m - 6:37.08 - (35.9)
5000m - 7:12.52 - (35.4)
50.70 0